SL-14 DEB, 45295

Orbit data source: Space-Track

SL-14 DEB, 45295 is space debris in LEO originally from a launch on Thu, 15 Aug 1991 UTC launched from the Plesetsk Missile And Space Complex (PKMTR). Debris objects in space refer to the collection of defunct objects orbiting the Earth. Examples of debris include non-operational satellites, rocket bodies, and fragments generated from explosions, collisions, or faulty payload assembly.

Loading next visibility...
Identifier
45295, 1991-056AH
Orbit
LEO
Country
Flag of CISCIS
Related business
Manufacturer
Unknown
Mission
Spacecraft
Bus & Motor
Unknown
Mass
Unknown
Launch date (UTC)
1991-08-15 (35 years ago)
Launch vehicle
Unknown
Launch site
Plesetsk Missile And Space Complex (PKMTR)
Object type
Payload
Rocket body
Debris
Shape & HBR
Unknown shape, 0.1 m
Radar Cross Section
Small (<0.1 m²)

Expand to show TLE details & history
Last TLE update: 3 days ago

TLE from 3 days ago
0 SL-14 DEB
1 45295U 91056AH  26125.44152196  .00001389  00000-0  24914-2 0  9997
2 45295  82.5683 117.4261 0080425 334.6531  25.0667 13.39791758302021
Epoch: 2026-05-05T10:35Z
TLE epoch observation values (Epoch: 2026-05-05T10:35:47.497Z)
Latitude
-0.00007°
Longitude
95.16187°
Altitude
1,058.422 km
Speed
7.349 km/s
True Right ascension
07h 49m 42s
True Declination
0° 00' 00"
Sunlit
Object was in daylight at epoch
Visualization orbit readout
Latitude
Unknown
Longitude
Unknown
Altitude
Unknown
Speed
Unknown
Apparent Right ascension
Unknown
Apparent Declination
Unknown
Sunlit
N/A
Visualization observer readout
Local Sidereal Time
21:00:27
Azimuth
Unknown
Elevation
Unknown
Doppler factor
Unknown
Orbital elements
Apogee altitude
1,167.468 km
Perigee altitude
1,047.066 km
Semi-major axis
7,485.404 km
Eccentricity
0.00804
Inclination
82.5683°
RAAN
117.4261°
Arg. of periapsis
334.6531°
True anomaly
25.46074°
Mean anomaly
25.0667°
Eccentric anomaly
25.26336°
Mean motion
3.35135 °/min
Orbital period
107.42 mins
BSTAR
0.0024914
Loading maneuver chart data...
Computing Atmospheric mass density...
Loading historical data...
Loading historical data...
Loading historical data...
Loading historical data...
Loading historical data...
Loading historical data...
Loading historical data...

Documentation

Showing up to 5 results
|